FW9372 Weather Reports


time (UTC)temp
C
wind
direction
speed
KPH
gust
KPH
rain 1hr
cm
rain 24hr
cm
rain mn
cm
humidity
%
barometer
mb
20260905204607 36 0 0.0 0.0 0.00 0.00 0.00 59 1009.5
20260905203109 35 0 0.0 1.6 0.00 0.00 0.00 60 1009.6
20260905201604 36 0 0.0 0.0 0.00 0.00 0.00 58 1009.6
20260905200114 35 0 0.0 3.2 0.00 0.00 0.00 60 1009.9
20260905194604 35 0 0.0 3.2 0.00 0.00 0.00 63 1009.9
20260905193103 35 0 0.0 1.6 0.00 0.00 0.00 62 1010.3
20260905191605 35 0 0.0 1.6 0.00 0.00 0.00 62 1010.5
20260905190113 35 0 0.0 6.4 0.00 0.00 0.00 64 1010.7
20260905184608 35 0 0.0 1.6 0.00 0.00 0.00 66 1011.0
20260905183126 34 0 0.0 3.2 0.00 0.00 0.00 65 1011.2
20260905181606 33 0 0.0 6.4 0.00 0.00 0.00 64 1011.2
20260905180106 33 0 0.0 1.6 0.00 0.00 0.00 65 1011.2
20260905174607 33 0 0.0 6.4 0.00 0.00 0.00 70 1011.6
20260905173105 33 0 0.0 0.0 0.00 0.00 0.00 70 1011.7
20260905171608 32 0 0.0 3.2 0.00 0.00 0.00 67 1011.8
20260905170104 32 0 0.0 1.6 0.00 0.00 0.00 69 1012.1
20260905164609 32 0 0.0 4.8 0.00 0.00 0.00 70 1012.1
20260905163109 31 0 0.0 4.8 0.00 0.00 0.00 73 1012.4
20260905161608 31 0 0.0 8.0 0.00 0.00 0.00 73 1012.3
20260905160123 30 0 0.0 8.0 0.00 0.00 0.00 75 1012.5
20260905154607 30 0 0.0 9.7 0.00 0.00 0.00 76 1012.5
20260905153112 30 0 0.0 9.7 0.00 0.00 0.00 76 1012.5
20260905151610 30 66 0.0 11.3 0.00 0.00 0.00 77 1012.7
20260905150106 29 0 0.0 4.8 0.00 0.00 0.00 80 1012.7
20260905144604 28 58 0.0 6.4 0.00 0.00 0.00 81 1012.9
20260905143114 27 0 0.0 6.4 0.00 0.00 0.00 85 1012.9
20260905141606 28 68 0.0 0.0 0.00 0.00 0.00 81 1012.8
20260905140110 28 0 0.0 0.0 0.00 0.00 0.00 87 1012.4
20260905134606 28 0 0.0 0.0 0.00 0.00 0.00 89 1012.4
20260905133108 27 0 0.0 0.0 0.00 0.00 0.00 94 1012.5
20260905131611 26 0 0.0 0.0 0.00 0.00 0.00 98 1012.4
20260905130117 25 0 0.0 0.0 0.00 0.00 0.00 99 1012.4
20260905124605 23 0 0.0 0.0 0.00 0.00 0.00 99 1012.6
20260905123110 23 0 0.0 0.0 0.00 0.00 0.00 99 1012.4
20260905121605 23 0 0.0 0.0 0.00 0.00 0.00 99 1012.4
20260905120114 22 0 0.0 0.0 0.00 0.00 0.00 99 1012.3
20260905114602 22 0 0.0 0.0 0.00 0.00 0.00 99 1012.2
20260905113107 22 0 0.0 0.0 0.00 0.00 0.00 99 1012.0
20260905111614 22 0 0.0 0.0 0.00 0.00 0.00 99 1011.7
20260905110105 22 0 0.0 0.0 0.00 0.00 0.00 99 1011.4
20260905104607 22 0 0.0 0.0 0.00 0.00 0.00 99 1011.3
20260905103106 22 0 0.0 0.0 0.00 0.00 0.00 99 1011.4
20260905101606 22 0 0.0 0.0 0.00 0.00 0.00 99 1011.4
20260905100107 22 0 0.0 0.0 0.00 0.00 0.00 99 1011.3
20260905094603 22 0 0.0 0.0 0.00 0.00 0.00 99 1011.3
20260905093105 22 0 0.0 0.0 0.00 0.00 0.00 99 1011.2
20260905091609 22 0 0.0 0.0 0.00 0.00 0.00 99 1011.0
20260905090106 22 0 0.0 0.0 0.00 0.00 0.00 99 1010.8
20260905084620 23 0 0.0 0.0 0.00 0.00 0.00 99 1010.9
20260905083111 22 0 0.0 0.0 0.00 0.00 0.00 99 1010.8
20260905081604 22 0 0.0 0.0 0.00 0.00 0.00 99 1010.9
20260905080105 22 0 0.0 0.0 0.00 0.00 0.00 98 1011.1
20260905074607 22 0 0.0 0.0 0.00 0.00 0.00 98 1011.0
20260905073108 23 0 0.0 0.0 0.00 0.00 0.00 98 1011.2
20260905071608 23 0 0.0 0.0 0.00 0.00 0.00 98 1011.2
20260905070110 23 0 0.0 0.0 0.00 0.00 0.00 98 1011.3
20260905063109 23 0 0.0 0.0 0.00 0.00 0.00 98 1011.5
20260905061611 23 0 0.0 0.0 0.00 0.00 0.00 98 1011.7
20260905060107 23 0 0.0 0.0 0.00 0.00 0.00 98 1011.8
20260905054607 23 0 0.0 0.0 0.00 0.00 0.00 98 1011.8
20260905053142 23 0 0.0 0.0 0.00 0.00 0.00 98 1011.8
20260905051604 23 0 0.0 0.0 0.00 0.00 0.00 97 1011.8
20260905050108 23 0 0.0 0.0 0.00 0.00 0.00 97 1012.0
20260905044611 23 0 0.0 0.0 0.00 0.00 0.00 97 1012.0
20260905043111 23 0 0.0 0.0 0.00 0.00 0.00 97 1011.9
20260905041608 24 0 0.0 0.0 0.00 0.00 0.00 97 1012.0
20260905040111 24 0 0.0 0.0 0.00 0.00 0.00 96 1012.0
20260905034606 24 0 0.0 0.0 0.00 0.00 0.00 96 1011.9
20260905033107 24 0 0.0 0.0 0.00 0.00 0.00 96 1012.0
20260905031605 24 0 0.0 0.0 0.00 0.00 0.00 95 1012.1
20260905030109 24 0 0.0 0.0 0.00 0.00 0.00 96 1012.1
20260905024624 24 0 0.0 0.0 0.00 0.00 0.00 95 1012.1
20260905023124 25 0 0.0 0.0 0.00 0.00 0.00 95 1012.0
20260905021617 25 0 0.0 0.0 0.00 0.00 0.00 94 1012.0
20260905020112 25 0 0.0 0.0 0.00 0.00 0.00 94 1012.0
20260905014616 25 0 0.0 0.0 0.00 0.00 0.00 93 1012.0
20260905013105 26 0 0.0 0.0 0.00 0.00 0.00 93 1011.7
20260905011623 26 0 0.0 0.0 0.00 0.00 0.00 93 1011.5
20260905010123 26 0 0.0 0.0 0.00 0.00 0.00 92 1011.6
20260905004609 26 0 0.0 0.0 0.00 0.00 0.00 91 1011.4
20260905003107 27 0 0.0 0.0 0.00 0.00 0.00 91 1011.4
20260905001607 27 0 0.0 0.0 0.00 0.00 0.00 90 1011.4
20260905000114 28 0 0.0 0.0 0.00 0.00 0.00 89 1011.4
20260904234614 28 0 0.0 0.0 0.00 0.00 0.00 88 1011.5
20260904233107 29 0 0.0 0.0 0.00 0.00 0.00 86 1011.5
20260904231612 30 0 0.0 0.0 0.00 0.00 0.00 83 1011.4
20260904230109 31 0 0.0 0.0 0.00 0.00 0.00 81 1011.2
20260904224614 32 0 0.0 0.0 0.00 0.00 0.00 79 1011.3
20260904223109 32 0 0.0 0.0 0.00 0.00 0.00 77 1011.3
20260904221609 33 0 0.0 0.0 0.00 0.00 0.00 76 1011.4
20260904220113 34 0 0.0 0.0 0.00 0.00 0.00 74 1011.4
20260904214614 35 0 0.0 0.0 0.00 0.00 0.00 71 1011.4
20260904213110 36 0 0.0 0.0 0.00 0.00 0.00 70 1011.4
20260904211613 37 0 0.0 0.0 0.00 0.00 0.00 64 1011.6
20260904210108 37 0 0.0 0.0 0.00 0.00 0.00 61 1011.8